sat.trackr.live / text

‹ back to catalog

BEIDOU-3 M17 (C36)

NORAD 43706 · 2018-093A

PAYLOAD ACTIVE UNKNOWN

§ Identity

Operator
Country
PRC
Launch date
2018-11-18
Launch site
XICLF
Launch vehicle
Mass (kg)
RCS (m²)

Purposes: nav

External: N2YO · Heavens-Above · Gunter

§ Orbital elements

Epoch: 2026-09-16T21:23:48.319008Z

Period
773.24 min
Inclination
54.1660°
Eccentricity
0.0008397
Mean motion
1.86228478 rev/d
Perigee alt
21,504.9 km
Apogee alt
21,551.7 km
Semi-major
27,906.4 km
B*
0.0000e+0
RAAN
179.1872°
Arg perigee
303.8235°
Mean anomaly
256.2060°
Rev number
5,324

§ Raw data

BEIDOU-3 M17 (C36)1 43706U 18093A   26259.89153147 -.00000007  00000+0  00000+0 0  99992 43706  54.1660 179.1872 0008397 303.8235 256.2060  1.86228478 53241

JSON: /api/v1/satellites/43706 · /tle

For live sub-satellite position, see the globe view (requires WebGL).

§ Visibility from observer

Set your observer location to see the next 7 days of passes ≥ 10°. The values pass through the URL so the page stays shareable.

No JS? Fill the form by hand. The geolocation button needs JavaScript.